Location: Ambodirofia
(17.3550°S, 48.9320°E)
Time: 02:58:18
(UTC+00:00)

Daily predictions for brighter satellites

Satellite Brightness Start Highest point End
(mag) Time Altitude Azimuth Time Altitude Azimuth Time Altitude Azimuth
Milstar 3 Cent rocket 4.4 00:11:01 41° NNW 00:15:42 59° NE 00:38:09 10° ESE
COSMOS 2428 4.0 00:19:42 32° NE 00:19:42 32° NE 00:22:40 10° NNE
Cosmos 2333 Rocket 4.5 00:31:32 12° N 00:31:32 12° N 00:31:58 10° N
Cosmos 2227 Rocket 3.9 00:37:37 20° SSW 00:37:37 20° SSW 00:39:27 10° S
ALOS 3.0 00:34:27 10° NNE 00:38:58 52° ESE 00:43:33 10° S
IRIDIUM 104 4.3 00:41:07 51° N 00:42:29 82° E 00:47:45 10° S
Cosmos 1605 Rocket 3.9 00:38:32 20° N 00:43:04 89° ENE 00:49:24 10° S
Cosmos 1869 Rocket 3.9 00:43:52 62° ENE 00:44:05 63° E 00:48:26 10° SSE
SJ 16-02 3.3 00:43:07 10° NNE 00:46:52 28° E 00:50:39 10° SE
IRIDIUM 114 4.1 00:50:17 51° NNW 00:51:36 78° W 00:56:52 10° S
GPS 2-17 Rocket1 3.9 00:52:01 40° N 00:52:20 41° NNE 00:56:46 10° E
USA 281 4.4 00:51:17 10° NE 00:57:22 41° ESE 01:03:28 10° S
USA 32 4.3 00:54:08 10° N 00:59:19 67° E 01:04:34 10° S
IRIDIUM 103 4.3 00:59:25 45° NW 01:00:45 60° W 01:05:57 10° S
Star 63D 4.1 01:04:15 56° NW 01:04:21 56° NNW 01:06:55 10° NE
Cosmos 2123 Rocket 3.8 01:00:18 10° S 01:06:30 74° W 01:12:40 10° N
METEOR-M 4.0 01:04:27 10° N 01:09:47 78° WNW 01:15:10 10° SSW
Cosmos 1703 Rocket 3.4 01:11:43 10° S 01:16:07 86° W 01:20:26 10° N
ADEOS 4.2 01:16:22 10° NNW 01:20:55 31° W 01:25:31 10° SW
Okean 1-7 2.9 01:17:37 10° S 01:21:59 81° W 01:26:16 10° N
Cosmos 2100 Rocket 4.4 01:15:54 10° N 01:22:08 68° E 01:28:22 10° S
NOSS 0 Rocket 3.9 01:16:08 10° SSW 01:22:11 58° WNW 01:28:13 10° N
Meteor PRIRODA 3.9 01:19:12 10° NNE 01:22:48 69° ESE 01:26:27 10° S
GEOS 3 Rocket 3.5 01:20:20 10° NNE 01:25:31 69° WNW 01:30:40 10° SW
Cosmos 1515 4.0 01:23:23 10° SSW 01:27:01 40° W 01:30:36 10° NNW
CZ-3C R/B 0.9 01:27:11 40° SW 01:27:42 51° S 01:31:56 10° E
Cosmos 1459 Rocket 4.2 01:23:15 10° N 01:29:15 72° E 01:35:24 10° S
ATLAS 2A CENTAUR R/B 2.8 01:28:05 22° WSW 01:30:19 42° S 01:41:17 10° ESE
FENGYUN 3A 4.2 01:25:50 10° NNW 01:30:45 36° W 01:35:44 10° SW
Ariane H10 4.3 01:30:22 17° NW 01:34:46 39° N 01:49:19 10° ENE
Cosmos 1607 4.1 01:30:29 10° SW 01:36:16 47° WNW 01:42:04 10° N
ASTRO E2 3.4 01:37:21 24° W 01:39:06 36° NNW 01:42:47 10° NE
SEDSat Delta rocket 4.4 01:36:55 10° SW 01:41:17 38° SSE 01:46:14 10° E
Cosmos 2263 Rocket 2.2 01:37:02 10° NNW 01:42:43 87° WSW 01:48:27 10° SSE
Meteor 1-11 Rocket 3.8 01:37:27 10° NNW 01:42:49 52° W 01:48:13 10° S
Meteor 2-4 Rocket 3.7 01:37:59 10° SSW 01:43:47 70° W 01:49:20 10° N
Cosmos 1447 Rocket 4.5 01:39:16 10° S 01:45:40 77° W 01:51:59 10° N
Ariane H10 4.0 01:38:10 15° WNW 01:46:30 35° NNW 01:50:14 10° NE
Landsat 5 4.5 01:48:42 10° SSW 01:52:30 29° WSW 01:56:22 10° NW
Cosmos 773 Rocket 3.9 01:47:42 10° SSW 01:52:54 74° WNW 01:58:02 10° N
BREEZE-M DEB (TANK) 3.5 01:41:39 10° NW 01:54:18 74° NE 01:57:29 10° SE
Cosmos 2221 Rocket 4.2 01:50:20 10° S 01:54:47 63° E 01:59:13 10° NNE
Cosmos 1666 4.1 01:56:29 10° NW 01:59:04 18° W 02:01:42 10° SW
Spot 2 4.3 01:55:20 10° N 01:59:21 47° W 02:03:37 10° SSW
Cosmos 2237 Rocket 2.8 01:55:51 10° SW 02:00:56 34° WNW 02:05:59 10° NNW
SL-16 R/B 2.8 01:56:21 10° S 02:02:01 65° ESE 02:07:38 10° NNE
H-2A R/B 3.2 01:59:24 10° SSW 02:02:41 22° WSW 02:05:58 10° NW
Cosmos 1980 4.5 01:58:24 10° SW 02:03:13 29° WNW 02:08:01 10° NNW
Meteor 1-13 Rocket 4.2 01:59:31 10° S 02:05:07 79° W 02:10:37 10° N
USA 215 4.2 01:59:22 10° ENE 02:05:40 52° SE 02:12:00 10° SSW
Cosmos 2173 Rocket 4.3 01:59:48 10° NNW 02:05:54 49° W 02:12:02 10° S
OAO 3 Copernicus 4.4 02:01:28 10° WSW 02:06:31 68° NW 02:11:33 10° NE
GPS 2-04 Rocket1 2.3 02:03:21 10° SW 02:06:46 82° SSE 02:10:09 10° ENE
Shenzhou-11 Module 3.6 02:09:01 10° SW 02:09:27 10° SW 02:09:54 10° SSW
Cosmos 724 4.2 02:04:51 10° SSW 02:10:39 75° WNW 02:16:22 10° NNE
Cosmos 1536 4.1 02:07:43 10° NW 02:10:47 21° W 02:13:51 10° SSW
ERS-2 3.0 02:07:40 10° SSW 02:10:54 29° WSW 02:14:07 10° NW
ATLAS 3B CENTAUR R/B 4.4 01:50:25 10° WSW 02:11:04 66° NNW 02:20:17 10° NE
Cosmos 1733 Rocket 3.7 02:08:06 10° NNW 02:11:59 32° W 02:15:54 10° SSW
CZ-4B R/B 4.3 02:10:11 10° NW 02:12:18 15° W 02:14:29 10° WSW
Cosmos 1898 Rocket 3.7 02:07:16 10° NNW 02:12:24 51° WSW 02:17:37 10° S
SMAP 4.3 02:08:07 10° NNE 02:12:35 48° ESE 02:17:06 10° S
MOS 1-B 4.4 02:07:47 10° N 02:13:33 72° WNW 02:19:22 10° SSW
Okean O Rocket 2.5 02:09:34 10° NNE 02:13:48 54° ESE 02:18:04 10° S
ADEOS Rocket 3.7 02:12:47 10° S 02:20:13 51° WSW 02:27:09 10° NNW
CZ-3B R/B 4.4 02:07:43 10° WSW 02:31:27 68° NNW 02:38:16 10° NE
